Regional Weather Roundup
Issued by NWS

Home | Current Version | Previous Version | Text Only | Print | Product List | Glossary Off
Versions: 1 2 3 4 5 6 7 8 9 10 11 12 13 14 15 16 17 18 19 20 21 22 23 24 25 26 27 28 29 30 31 32 33 34 35 36 37 38 39 40 41 42 43 44 45 46 47 48 49 50

000
ASUS43 KBIS 100120
RWRND

NORTH DAKOTA REGIONAL WEATHER ROUNDUP
NATIONAL WEATHER SERVICE BISMARCK ND
800 PM CDT WED JUL 09 2014

NOTE: "FAIR" INDICATES FEW OR NO CLOUDS BELOW 12,000 FEET WITH NO
SIGNIFICANT WEATHER AND/OR OBSTRUCTIONS TO VISIBILITY.


NDZ001>003-009>011-017-100200-
NORTHWEST NORTH DAKOTA

CITY           SKY/WX    TMP DP  RH WIND       PRES   REMARKS
WILLISTON      SUNNY     83  53  35 S12       29.87F
MINOT          SUNNY     75  52  44 SE6       29.92F
MINOT AFB      SUNNY     74  60  61 SE6       29.91F
$$

NDZ018>021-031>035-040>046-100200-
SOUTHWEST NORTH DAKOTA

CITY           SKY/WX    TMP DP  RH WIND       PRES   REMARKS
BISMARCK       SUNNY     75  60  59 SE6       29.95F HAZE
DICKINSON      SUNNY     76  58  53 SE10      29.92F
GARRISON         N/A     75  61  61 SE7       29.93F
HETTINGER ARPT SUNNY     77  54  44 SE12      29.96F
$$

NDZ004>008-012>016-024-026-027-054-100200-
NORTHEAST NORTH DAKOTA

CITY           SKY/WX    TMP DP  RH WIND       PRES   REMARKS
GRAND FORKS    MOSUNNY   74  51  44 CALM      29.97F
GRND FRKS AFB  SUNNY     72  50  46 CALM      29.98F
DEVILS LAKE    SUNNY     70  52  52 SE6       29.95F
$$

NDZ022-023-025-028>030-036>039-047>053-100200-
SOUTHEAST NORTH DAKOTA

CITY           SKY/WX    TMP DP  RH WIND       PRES   REMARKS
FARGO          SUNNY     75  49  39 N3        29.98S
JAMESTOWN      SUNNY     73  56  54 SE6       29.97F
$$




USA.gov is the U.S. government's official web portal to all federal, state and local government web resources and services.